Location: La Pernelle
(49.6188°N, 1.2999°W)
Time: 08:44:33
(UTC+00:00)

Cosmos 967 Rocket - Pass Details

Date: 12 June 2021
Orbit: 950 x 988 km, 65.8° (Epoch: 03 August)

Event Time Altitude Azimuth Distance (km) Brightness Sun altitude
Rises 23:38:22 0° 321° (NW) 3,661 8.5 -16.9°
Reaches altitude 10° 23:40:55 10° 320° (NW) 2,717 7.7 -17.0°
Maximum altitude 23:47:17 80° 236° (SW) 995 4.5 -17.1°
Enters shadow 23:51:27 23° 152° (SSE) 1,939 5.5 -17.1°
